This is the latest recevied weather packets stored in our database for station/object SQ5LTL-2. If no packets are shown the sender has not sent any weather packets the latest 10 day(s).
| Time | Temp. | Humidity | Pressure | Rain* | Wind** | Luminosity | Snow |
|---|---|---|---|---|---|---|---|
| 1778132732 | 15° C | 85% | 1009 hPa | 0 mm | - | 140 W/m² | - |
| 1778132431 | 15° C | 85% | 1008.9 hPa | 0 mm | - | 96 W/m² | - |
| 1778132129 | 15° C | 86% | 1008.9 hPa | 0 mm | - | 73 W/m² | - |
| 1778131829 | 15° C | 86% | 1008.9 hPa | 0 mm | - | 64 W/m² | - |
| 1778131528 | 15° C | 86% | 1009 hPa | 0 mm | - | 67 W/m² | - |
| 1778131225 | 15° C | 87% | 1008.9 hPa | 0 mm | - | 70 W/m² | - |
| 1778130923 | 14.44° C | 88% | 1009 hPa | 0 mm | - | 85 W/m² | - |
| 1778130622 | 14.44° C | 88% | 1008.9 hPa | 0 mm | - | 79 W/m² | - |
| 1778130321 | 14.44° C | 89% | 1009 hPa | 0 mm | - | 77 W/m² | - |
| 1778130019 | 14.44° C | 89% | 1008.9 hPa | 0 mm | - | 81 W/m² | - |
| 1778129718 | 13.89° C | 90% | 1008.9 hPa | 0 mm | - | 76 W/m² | - |
| 1778129416 | 13.89° C | 90% | 1008.9 hPa | 0 mm | - | 74 W/m² | - |
| 1778129135 | 13.89° C | 90% | 1008.9 hPa | 0 mm | - | 73 W/m² | - |
| 1778128833 | 13.89° C | 90% | 1008.9 hPa | 0 mm | - | 65 W/m² | - |
| 1778128532 | 13.89° C | 91% | 1008.8 hPa | 0 mm | - | 57 W/m² | - |
| 1778128231 | 13.33° C | 91% | 1008.7 hPa | 0 mm | - | 54 W/m² | - |
| 1778127930 | 13.33° C | 91% | 1008.6 hPa | 0 mm | - | 53 W/m² | - |
| 1778127627 | 13.33° C | 91% | 1008.7 hPa | 0 mm | - | 48 W/m² | - |
| 1778127326 | 13.33° C | 91% | 1008.5 hPa | 0 mm | - | 41 W/m² | - |
| 1778127025 | 13.33° C | 92% | 1008.5 hPa | 0 mm | - | 38 W/m² | - |
| 1778126723 | 13.33° C | 92% | 1008.4 hPa | 0 mm | - | 35 W/m² | - |
| 1778126423 | 13.33° C | 92% | 1008.3 hPa | 0 mm | - | 32 W/m² | - |
| 1778126122 | 13.33° C | 92% | 1008.3 hPa | 0 mm | - | 29 W/m² | - |
| 1778125819 | 13.33° C | 92% | 1008.2 hPa | 0 mm | - | 27 W/m² | - |
| 1778125518 | 12.78° C | 93% | 1008.3 hPa | 0 mm | - | 24 W/m² | - |
* Rain latest hour (hover to see other rain measurements)
** Current wind speed in m/s (hover to see current wind gust speed)